Time,TemperatureF,DewpointF,PressureIn,WindDirection,WindDirectionDegrees,WindSpeedMPH,WindSpeedGustMPH,Humidity,HourlyPrecipIn,Conditions,Clouds,dailyrainin,SoftwareType,DateUTC
2013-02-05 00:11:00,25.1,23.0,29.95,North,360,1.0,6.0,91,0.00,,,0.00,weatherlink.com 1.10,2013-02-05 05:11:00,
2013-02-05 00:26:00,25.0,23.0,29.95,NNE,32,4.0,7.0,91,0.00,,,0.00,weatherlink.com 1.10,2013-02-05 05:26:00,
2013-02-05 00:42:00,24.9,23.0,29.96,NNE,19,5.0,9.0,91,0.00,,,0.00,weatherlink.com 1.10,2013-02-05 05:42:00,
2013-02-05 00:57:00,24.6,22.0,29.95,NNE,26,1.0,8.0,90,0.00,,,0.00,weatherlink.com 1.10,2013-02-05 05:57:00,
2013-02-05 01:12:00,24.4,22.0,29.95,NNE,26,0.0,3.0,90,0.00,,,0.00,weatherlink.com 1.10,2013-02-05 06:12:00,
2013-02-05 01:26:00,24.0,22.0,29.96,NNE,26,1.0,3.0,90,0.00,,,0.00,weatherlink.com 1.10,2013-02-05 06:26:00,
2013-02-05 01:42:00,23.8,21.0,29.96,NNE,26,0.0,0.0,90,0.00,,,0.00,weatherlink.com 1.10,2013-02-05 06:42:00,
2013-02-05 01:58:00,23.6,21.0,29.97,NNE,26,0.0,3.0,90,0.00,,,0.00,weatherlink.com 1.10,2013-02-05 06:58:00,
2013-02-05 02:13:00,23.3,21.0,29.97,NNE,26,0.0,1.0,90,0.00,,,0.00,weatherlink.com 1.10,2013-02-05 07:13:00,
2013-02-05 02:27:00,22.9,20.0,29.97,NNE,26,0.0,0.0,90,0.00,,,0.00,weatherlink.com 1.10,2013-02-05 07:27:00,
2013-02-05 02:43:00,22.2,20.0,29.97,NNE,26,0.0,0.0,90,0.00,,,0.00,weatherlink.com 1.10,2013-02-05 07:43:00,
2013-02-05 02:58:00,21.7,20.0,29.96,NNE,26,0.0,1.0,91,0.00,,,0.00,weatherlink.com 1.10,2013-02-05 07:58:00,
2013-02-05 03:13:00,21.3,19.0,29.96,NNE,26,0.0,0.0,91,0.00,,,0.00,weatherlink.com 1.10,2013-02-05 08:13:00,
2013-02-05 03:28:00,20.9,19.0,29.96,NNE,26,0.0,0.0,91,0.00,,,0.00,weatherlink.com 1.10,2013-02-05 08:28:00,
2013-02-05 03:44:00,20.4,18.0,29.96,NNE,26,0.0,0.0,91,0.00,,,0.00,weatherlink.com 1.10,2013-02-05 08:44:00,
2013-02-05 03:59:00,20.0,18.0,29.96,NNE,26,0.0,0.0,91,0.00,,,0.00,weatherlink.com 1.10,2013-02-05 08:59:00,
2013-02-05 04:15:00,19.3,17.0,29.96,NNE,26,0.0,1.0,91,0.00,,,0.00,weatherlink.com 1.10,2013-02-05 09:15:00,
2013-02-05 04:30:00,19.1,17.0,29.95,NNE,26,0.0,0.0,92,0.00,,,0.00,weatherlink.com 1.10,2013-02-05 09:30:00,
2013-02-05 04:46:00,19.7,18.0,29.95,NNE,26,0.0,0.0,93,0.00,,,0.00,weatherlink.com 1.10,2013-02-05 09:46:00,
2013-02-05 05:02:00,19.7,18.0,29.95,NNE,26,0.0,1.0,93,0.00,,,0.00,weatherlink.com 1.10,2013-02-05 10:02:00,
2013-02-05 05:15:00,20.2,19.0,29.96,NNE,26,0.0,2.0,93,0.00,,,0.00,weatherlink.com 1.10,2013-02-05 10:15:00,
2013-02-05 05:32:00,20.2,19.0,29.95,NNE,26,0.0,0.0,93,0.00,,,0.00,weatherlink.com 1.10,2013-02-05 10:32:00,
2013-02-05 05:46:00,19.6,18.0,29.95,NNE,26,0.0,1.0,92,0.00,,,0.00,weatherlink.com 1.10,2013-02-05 10:46:00,
2013-02-05 06:01:00,19.3,18.0,29.94,NNE,26,0.0,2.0,93,0.00,,,0.00,weatherlink.com 1.10,2013-02-05 11:01:00,
2013-02-05 06:16:00,19.4,18.0,29.96,NNE,26,1.0,1.0,93,0.00,,,0.00,weatherlink.com 1.10,2013-02-05 11:16:00,
2013-02-05 06:32:00,19.7,18.0,29.96,NNE,26,0.0,1.0,93,0.00,,,0.00,weatherlink.com 1.10,2013-02-05 11:32:00,
2013-02-05 06:47:00,19.6,18.0,29.97,NNE,26,0.0,0.0,93,0.00,,,0.00,weatherlink.com 1.10,2013-02-05 11:47:00,
2013-02-05 07:02:00,19.0,17.0,29.96,NNE,26,0.0,0.0,93,0.00,,,0.00,weatherlink.com 1.10,2013-02-05 12:02:00,
2013-02-05 07:17:00,18.6,17.0,29.96,NNE,26,0.0,0.0,92,0.00,,,0.00,weatherlink.com 1.10,2013-02-05 12:17:00,
2013-02-05 07:33:00,18.6,17.0,29.96,NNE,26,1.0,2.0,93,0.00,,,0.00,weatherlink.com 1.10,2013-02-05 12:33:00,
2013-02-05 07:48:00,19.1,17.0,29.97,NNE,26,0.0,0.0,93,0.00,,,0.00,weatherlink.com 1.10,2013-02-05 12:48:00,
2013-02-05 08:04:00,19.4,18.0,29.98,NNE,26,0.0,2.0,94,0.00,,,0.00,weatherlink.com 1.10,2013-02-05 13:04:00,
2013-02-05 08:19:00,19.5,18.0,29.98,NNE,26,0.0,2.0,93,0.00,,,0.00,weatherlink.com 1.10,2013-02-05 13:19:00,
2013-02-05 08:33:00,19.9,19.0,29.97,NNE,26,0.0,3.0,94,0.00,,,0.00,weatherlink.com 1.10,2013-02-05 13:33:00,
2013-02-05 08:49:00,20.9,20.0,29.98,SW,217,3.0,5.0,94,0.00,,,0.00,weatherlink.com 1.10,2013-02-05 13:49:00,
2013-02-05 09:05:00,21.5,20.0,29.99,SSW,209,2.0,7.0,94,0.00,,,0.00,weatherlink.com 1.10,2013-02-05 14:05:00,
2013-02-05 09:20:00,21.7,20.0,29.98,SSW,206,5.0,5.0,94,0.00,,,0.00,weatherlink.com 1.10,2013-02-05 14:20:00,
2013-02-05 09:36:00,22.3,21.0,29.98,SSW,206,1.0,4.0,94,0.00,,,0.00,weatherlink.com 1.10,2013-02-05 14:36:00,
2013-02-05 09:52:00,22.9,22.0,29.98,SSW,206,3.0,5.0,94,0.00,,,0.00,weatherlink.com 1.10,2013-02-05 14:52:00,
2013-02-05 10:07:00,23.3,22.0,29.98,SW,221,3.0,5.0,93,0.00,,,0.00,weatherlink.com 1.10,2013-02-05 15:07:00,
2013-02-05 10:22:00,23.2,21.0,29.98,SSW,197,5.0,8.0,92,0.00,,,0.00,weatherlink.com 1.10,2013-02-05 15:22:00,
2013-02-05 10:36:00,23.5,22.0,29.98,SW,214,6.0,7.0,92,0.00,,,0.00,weatherlink.com 1.10,2013-02-05 15:36:00,
2013-02-05 10:51:00,23.8,22.0,29.99,South,189,4.0,8.0,92,0.00,,,0.00,weatherlink.com 1.10,2013-02-05 15:51:00,
2013-02-05 11:07:00,24.5,22.0,29.97,SSW,194,5.0,8.0,91,0.00,,,0.00,weatherlink.com 1.10,2013-02-05 16:07:00,
2013-02-05 11:22:00,25.2,23.0,29.96,SSW,192,8.0,9.0,90,0.00,,,0.00,weatherlink.com 1.10,2013-02-05 16:22:00,
2013-02-05 11:37:00,25.9,23.0,29.96,South,171,5.0,8.0,88,0.00,,,0.00,weatherlink.com 1.10,2013-02-05 16:37:00,
2013-02-05 11:52:00,26.6,23.0,29.95,SSE,152,6.0,10.0,87,0.00,,,0.00,weatherlink.com 1.10,2013-02-05 16:52:00,
2013-02-05 12:09:00,27.4,24.0,29.93,South,175,7.0,8.0,86,0.00,,,0.00,weatherlink.com 1.10,2013-02-05 17:09:00,
2013-02-05 12:24:00,27.9,24.0,29.93,SSW,209,6.0,9.0,85,0.00,,,0.00,weatherlink.com 1.10,2013-02-05 17:24:00,
2013-02-05 12:38:00,28.2,24.0,29.92,South,179,6.0,13.0,83,0.00,,,0.00,weatherlink.com 1.10,2013-02-05 17:38:00,
2013-02-05 12:53:00,28.8,24.0,29.91,South,182,5.0,13.0,82,0.00,,,0.00,weatherlink.com 1.10,2013-02-05 17:53:00,
2013-02-05 13:09:00,29.2,24.0,29.91,SSW,205,3.0,9.0,82,0.00,,,0.00,weatherlink.com 1.10,2013-02-05 18:09:00,
2013-02-05 13:23:00,29.9,24.0,29.91,SSW,205,3.0,10.0,80,0.00,,,0.00,weatherlink.com 1.10,2013-02-05 18:23:00,
2013-02-05 13:39:00,30.2,24.0,29.90,SSW,212,4.0,12.0,78,0.00,,,0.00,weatherlink.com 1.10,2013-02-05 18:39:00,
2013-02-05 13:54:00,30.4,24.0,29.89,SSW,211,5.0,10.0,78,0.00,,,0.00,weatherlink.com 1.10,2013-02-05 18:54:00,
2013-02-05 14:11:00,30.8,24.0,29.88,SSW,204,7.0,10.0,77,0.00,,,0.00,weatherlink.com 1.10,2013-02-05 19:11:00,
2013-02-05 14:26:00,31.2,25.0,29.87,SSW,202,4.0,13.0,77,0.00,,,0.00,weatherlink.com 1.10,2013-02-05 19:26:00,
2013-02-05 14:41:00,31.3,25.0,29.87,SSW,209,5.0,11.0,76,0.00,,,0.00,weatherlink.com 1.10,2013-02-05 19:41:00,
2013-02-05 14:54:00,31.5,25.0,29.86,SSE,162,6.0,10.0,76,0.00,,,0.00,weatherlink.com 1.10,2013-02-05 19:54:00,
2013-02-05 15:11:00,31.8,25.0,29.86,SSW,200,7.0,11.0,76,0.00,,,0.00,weatherlink.com 1.10,2013-02-05 20:11:00,
2013-02-05 15:27:00,32.0,26.0,29.86,SW,220,7.0,10.0,77,0.00,,,0.00,weatherlink.com 1.10,2013-02-05 20:27:00,
2013-02-05 15:42:00,32.3,26.0,29.86,SW,227,4.0,10.0,77,0.00,,,0.00,weatherlink.com 1.10,2013-02-05 20:42:00,
2013-02-05 15:56:00,32.6,26.0,29.86,SW,225,4.0,10.0,77,0.00,,,0.00,weatherlink.com 1.10,2013-02-05 20:56:00,
2013-02-05 16:12:00,32.8,27.0,29.87,SSW,207,6.0,9.0,78,0.00,,,0.00,weatherlink.com 1.10,2013-02-05 21:12:00,
2013-02-05 16:26:00,33.1,27.0,29.87,WSW,246,7.0,12.0,78,0.00,,,0.00,weatherlink.com 1.10,2013-02-05 21:26:00,
2013-02-05 16:42:00,32.9,27.0,29.87,WSW,244,10.0,10.0,80,0.00,,,0.00,weatherlink.com 1.10,2013-02-05 21:42:00,
2013-02-05 16:56:00,32.9,28.0,29.89,West,263,9.0,12.0,81,0.00,,,0.00,weatherlink.com 1.10,2013-02-05 21:56:00,
2013-02-05 17:12:00,32.9,28.0,29.89,WSW,250,5.0,11.0,82,0.00,,,0.00,weatherlink.com 1.10,2013-02-05 22:12:00,
2013-02-05 17:29:00,32.7,29.0,29.90,WNW,290,7.0,13.0,86,0.00,,,0.00,weatherlink.com 1.10,2013-02-05 22:29:00,
2013-02-05 17:43:00,32.6,29.0,29.91,West,260,6.0,13.0,87,0.00,,,0.00,weatherlink.com 1.10,2013-02-05 22:43:00,
2013-02-05 17:57:00,32.5,29.0,29.91,WNW,288,5.0,8.0,88,0.00,,,0.00,weatherlink.com 1.10,2013-02-05 22:57:00,
2013-02-05 18:13:00,32.2,29.0,29.92,West,272,5.0,9.0,89,0.00,,,0.00,weatherlink.com 1.10,2013-02-05 23:13:00,
2013-02-05 18:29:00,32.2,30.0,29.92,West,272,5.0,8.0,90,0.00,,,0.00,weatherlink.com 1.10,2013-02-05 23:29:00,
2013-02-05 18:44:00,32.3,30.0,29.93,West,264,4.0,7.0,89,0.00,,,0.00,weatherlink.com 1.10,2013-02-05 23:44:00,
2013-02-05 18:58:00,32.4,30.0,29.93,West,265,3.0,8.0,89,0.00,,,0.00,weatherlink.com 1.10,2013-02-05 23:58:00,
2013-02-05 19:14:00,32.6,30.0,29.93,West,273,4.0,7.0,89,0.00,,,0.00,weatherlink.com 1.10,2013-02-06 00:14:00,
2013-02-05 19:29:00,32.8,30.0,29.94,West,266,8.0,11.0,88,0.00,,,0.00,weatherlink.com 1.10,2013-02-06 00:29:00,
2013-02-05 19:45:00,33.0,30.0,29.95,West,261,4.0,10.0,89,0.00,,,0.00,weatherlink.com 1.10,2013-02-06 00:45:00,
2013-02-05 19:59:00,33.2,30.0,29.95,West,260,4.0,11.0,89,0.00,,,0.00,weatherlink.com 1.10,2013-02-06 00:59:00,
2013-02-05 20:17:00,33.3,30.0,29.95,WSW,255,3.0,12.0,89,0.00,,,0.00,weatherlink.com 1.10,2013-02-06 01:17:00,
2013-02-05 20:31:00,33.4,31.0,29.96,NW,306,10.0,14.0,89,0.00,,,0.00,weatherlink.com 1.10,2013-02-06 01:31:00,
2013-02-05 20:46:00,33.4,30.0,29.97,NW,306,5.0,13.0,88,0.00,,,0.00,weatherlink.com 1.10,2013-02-06 01:46:00,
2013-02-05 21:01:00,33.4,30.0,29.98,WNW,282,3.0,12.0,88,0.00,,,0.00,weatherlink.com 1.10,2013-02-06 02:01:00,
2013-02-05 21:16:00,33.3,30.0,29.99,West,279,7.0,10.0,88,0.00,,,0.00,weatherlink.com 1.10,2013-02-06 02:16:00,
2013-02-05 21:32:00,33.3,30.0,29.99,NW,311,6.0,13.0,88,0.00,,,0.00,weatherlink.com 1.10,2013-02-06 02:32:00,
2013-02-05 21:46:00,33.3,30.0,30.00,WNW,290,8.0,12.0,87,0.00,,,0.00,weatherlink.com 1.10,2013-02-06 02:46:00,
2013-02-05 22:02:00,33.2,30.0,30.01,WNW,287,4.0,17.0,86,0.00,,,0.00,weatherlink.com 1.10,2013-02-06 03:02:00,
2013-02-05 22:17:00,33.1,29.0,30.01,WNW,284,9.0,14.0,85,0.00,,,0.00,weatherlink.com 1.10,2013-02-06 03:17:00,
2013-02-05 22:33:00,32.9,29.0,30.02,NNW,330,10.0,15.0,85,0.00,,,0.00,weatherlink.com 1.10,2013-02-06 03:33:00,
2013-02-05 22:48:00,32.7,29.0,30.02,WNW,297,4.0,15.0,86,0.00,,,0.00,weatherlink.com 1.10,2013-02-06 03:48:00,
2013-02-05 23:02:00,32.5,29.0,30.03,NNW,328,6.0,14.0,86,0.00,,,0.00,weatherlink.com 1.10,2013-02-06 04:02:00,
2013-02-05 23:19:00,32.4,29.0,30.04,NW,325,5.0,12.0,86,0.00,,,0.00,weatherlink.com 1.10,2013-02-06 04:19:00,
2013-02-05 23:34:00,32.2,29.0,30.04,WNW,301,8.0,12.0,86,0.00,,,0.00,weatherlink.com 1.10,2013-02-06 04:34:00,
2013-02-05 23:48:00,32.0,29.0,30.05,NW,325,3.0,12.0,88,0.00,,,0.00,weatherlink.com 1.10,2013-02-06 04:48:00,